Simultaneous Nadir Overpasses (SNOs) Predictions

Prediction of SNOs between METOP-A and NOAA-19 Satellite Orbit:

Table of predicted SNOs for the next 14.0 days since TLE Epoch: 2/22/2020
Index Date (METOP-A) Time (METOP-A) Lat,Lon (METOP-A) SZA (METOP-A ) Date (NOAA-19) Time (NOAA-19) Lat,Lon (NOAA-19) SZA (NOAA-19 ) Distance(km) Time Diff (sec)
1 02/24/2020 04:00:49 -80.33, -46.69 89.90 02/24/2020 03:59:45 -80.32, -46.72 89.92 0.82 64
2 02/24/2020 04:51:30 80.32, 120.51 90.07 02/24/2020 04:50:41 80.32, 120.66 90.07 2.85 49
3 02/24/2020 05:42:11 -80.32, -72.16 89.95 02/24/2020 05:41:45 -80.31, -71.99 89.95 3.27 26
4 02/24/2020 06:32:52 80.31, 95.05 90.03 02/24/2020 06:32:42 80.32, 95.05 90.05 1.79 10
5 02/24/2020 07:23:33 -80.31, -97.62 89.99 02/24/2020 07:23:46 -80.32, -97.60 89.97 1.09 13
6 02/24/2020 08:14:13 80.32, 69.89 90.03 02/24/2020 08:14:42 80.31, 69.77 90.02 2.74 29
7 02/24/2020 09:04:54 -80.33,-122.78 89.99 02/24/2020 09:05:46 -80.30,-122.87 90.01 2.98 52
8 02/24/2020 09:55:35 80.31, 44.43 89.99 02/24/2020 09:56:42 80.30, 44.49 89.98 2.08 67
9 03/06/2020 04:23:34 80.35, 127.59 85.96 03/06/2020 04:22:20 80.34, 127.71 85.95 2.31 74
10 03/06/2020 05:14:15 -80.35, -65.03 94.06 03/06/2020 05:13:26 -80.35, -65.15 94.07 2.28 49
11 03/06/2020 06:04:56 80.33, 102.12 85.91 03/06/2020 06:04:21 80.35, 102.10 85.92 1.85 35
12 03/06/2020 06:55:37 -80.34, -90.50 94.10 03/06/2020 06:55:26 -80.34, -90.43 94.10 1.24 11
13 03/06/2020 07:46:17 80.35, 76.97 85.91 03/06/2020 07:46:21 80.34, 76.82 85.89 3.12 4
14 03/06/2020 08:36:59 -80.33,-115.96 94.14 03/06/2020 08:37:27 -80.34,-116.04 94.13 2.29 28
15 03/06/2020 09:27:39 80.34, 51.50 85.87 03/06/2020 09:28:21 80.33, 51.54 85.86 1.75 42
16 03/06/2020 10:18:21 -80.32,-141.43 94.18 03/06/2020 10:19:27 -80.33,-141.32 94.16 2.55 66




NCC Satellite Simultaneous Nadir Overpasses (SNOs) Prediction Service
